Time,TemperatureF,DewpointF,PressureIn,WindDirection,WindDirectionDegrees,WindSpeedMPH,WindSpeedGustMPH,Humidity,HourlyPrecipIn,Conditions,Clouds,dailyrainin,SoftwareType,DateUTC
2013-04-17 00:14:00,46.8,36.4,30.11,ESE,112,5.3,-999.0,67,-99.99,,,0.00,Acu-Link.com,2013-04-17 04:14:00,
2013-04-17 00:30:00,46.0,36.8,30.12,NNE,22,3.2,-999.0,70,-99.99,,,0.00,Acu-Link.com,2013-04-17 04:30:00,
2013-04-17 00:45:00,45.5,37.4,30.11,East,90,2.2,-999.0,73,-99.99,,,0.00,Acu-Link.com,2013-04-17 04:45:00,
2013-04-17 01:00:00,44.2,37.5,30.12,East,90,4.2,-999.0,77,-99.99,,,0.00,Acu-Link.com,2013-04-17 05:00:00,
2013-04-17 01:16:00,43.2,36.5,30.13,ENE,67,7.8,-999.0,77,-99.99,,,0.00,Acu-Link.com,2013-04-17 05:16:00,
2013-04-17 01:46:00,41.7,34.4,30.16,NE,45,4.2,-999.0,75,-99.99,,,0.00,Acu-Link.com,2013-04-17 05:46:00,
2013-04-17 02:01:00,41.0,33.7,30.16,ENE,67,3.2,-999.0,75,-99.99,,,0.00,Acu-Link.com,2013-04-17 06:01:00,
2013-04-17 02:32:00,40.6,34.0,30.16,ESE,112,2.7,-999.0,77,-99.99,,,0.00,Acu-Link.com,2013-04-17 06:32:00,
2013-04-17 02:47:00,40.6,33.3,30.18,ENE,67,2.7,-999.0,75,-99.99,,,0.00,Acu-Link.com,2013-04-17 06:47:00,
2013-04-17 03:02:00,40.6,32.6,30.19,ENE,67,3.2,-999.0,73,-99.99,,,0.00,Acu-Link.com,2013-04-17 07:02:00,
2013-04-17 03:17:00,40.1,32.5,30.20,NE,45,2.2,-999.0,74,-99.99,,,0.00,Acu-Link.com,2013-04-17 07:17:00,
2013-04-17 03:32:00,39.7,32.1,30.20,ESE,112,1.7,-999.0,74,-99.99,,,0.00,Acu-Link.com,2013-04-17 07:32:00,
2013-04-17 03:48:00,39.2,32.0,30.20,ENE,67,0.0,-999.0,75,-99.99,,,0.00,Acu-Link.com,2013-04-17 07:48:00,
2013-04-17 04:03:00,39.2,32.3,30.20,SSE,157,2.7,-999.0,76,-99.99,,,0.00,Acu-Link.com,2013-04-17 08:03:00,
2013-04-17 04:18:00,39.4,32.1,30.20,NE,45,2.7,-999.0,75,-99.99,,,0.00,Acu-Link.com,2013-04-17 08:18:00,
2013-04-17 04:33:00,38.7,32.1,30.21,ESE,112,0.0,-999.0,77,-99.99,,,0.00,Acu-Link.com,2013-04-17 08:33:00,
2013-04-17 04:49:00,38.1,31.9,30.21,East,90,2.7,-999.0,78,-99.99,,,0.00,Acu-Link.com,2013-04-17 08:49:00,
2013-04-17 05:04:00,38.7,32.4,30.22,East,90,1.7,-999.0,78,-99.99,,,0.00,Acu-Link.com,2013-04-17 09:04:00,
2013-04-17 05:19:00,38.8,32.2,30.22,NE,45,1.7,-999.0,77,-99.99,,,0.00,Acu-Link.com,2013-04-17 09:19:00,
2013-04-17 05:35:00,39.0,32.4,30.22,NE,45,1.7,-999.0,77,-99.99,,,0.00,Acu-Link.com,2013-04-17 09:35:00,
2013-04-17 05:50:00,38.3,32.1,30.21,East,90,2.7,-999.0,78,-99.99,,,0.00,Acu-Link.com,2013-04-17 09:50:00,
2013-04-17 06:05:00,37.6,32.0,30.21,ENE,67,1.7,-999.0,80,-99.99,,,0.00,Acu-Link.com,2013-04-17 10:05:00,
2013-04-17 06:20:00,37.0,31.7,30.21,ESE,112,2.2,-999.0,81,-99.99,,,0.00,Acu-Link.com,2013-04-17 10:20:00,
2013-04-17 06:35:00,36.7,31.7,30.21,SSE,157,3.7,-999.0,82,-99.99,,,0.00,Acu-Link.com,2013-04-17 10:35:00,
2013-04-17 06:50:00,36.7,31.7,30.22,ESE,112,0.0,-999.0,82,-99.99,,,0.00,Acu-Link.com,2013-04-17 10:50:00,
2013-04-17 07:05:00,36.3,31.6,30.22,ESE,112,0.0,-999.0,83,-99.99,,,0.00,Acu-Link.com,2013-04-17 11:05:00,
2013-04-17 07:37:00,38.8,32.5,30.23,ESE,112,1.7,-999.0,78,-99.99,,,0.00,Acu-Link.com,2013-04-17 11:37:00,
2013-04-17 07:52:00,40.3,32.7,30.23,East,90,2.2,-999.0,74,-99.99,,,0.00,Acu-Link.com,2013-04-17 11:52:00,
2013-04-17 08:08:00,41.0,32.3,30.23,ESE,112,2.2,-999.0,71,-99.99,,,0.00,Acu-Link.com,2013-04-17 12:08:00,
2013-04-17 08:23:00,42.3,32.1,30.23,ESE,112,5.8,-999.0,67,-99.99,,,0.00,Acu-Link.com,2013-04-17 12:23:00,
2013-04-17 08:39:00,42.3,31.4,30.23,NE,45,2.7,-999.0,65,-99.99,,,0.00,Acu-Link.com,2013-04-17 12:39:00,
2013-04-17 08:54:00,43.7,32.3,30.23,East,90,2.7,-999.0,64,-99.99,,,0.00,Acu-Link.com,2013-04-17 12:54:00,
2013-04-17 09:09:00,43.5,32.5,30.22,ESE,112,4.7,-999.0,65,-99.99,,,0.00,Acu-Link.com,2013-04-17 13:09:00,
2013-04-17 09:24:00,44.6,32.0,30.22,ESE,112,2.2,-999.0,61,-99.99,,,0.00,Acu-Link.com,2013-04-17 13:24:00,
2013-04-17 09:40:00,45.5,32.4,30.21,ENE,67,3.7,-999.0,60,-99.99,,,0.00,Acu-Link.com,2013-04-17 13:40:00,
2013-04-17 09:55:00,47.5,33.5,30.21,ESE,112,3.7,-999.0,58,-99.99,,,0.00,Acu-Link.com,2013-04-17 13:55:00,
2013-04-17 10:10:00,46.9,32.5,30.21,NNE,22,4.7,-999.0,57,-99.99,,,0.00,Acu-Link.com,2013-04-17 14:10:00,
2013-04-17 10:25:00,48.2,33.7,30.20,NE,45,5.3,-999.0,57,-99.99,,,0.00,Acu-Link.com,2013-04-17 14:25:00,
2013-04-17 10:40:00,49.3,33.4,30.21,ESE,112,2.7,-999.0,54,-99.99,,,0.00,Acu-Link.com,2013-04-17 14:40:00,
2013-04-17 10:56:00,50.4,33.0,30.20,ESE,112,2.7,-999.0,51,-99.99,,,0.00,Acu-Link.com,2013-04-17 14:56:00,
2013-04-17 11:11:00,50.9,33.9,30.20,ESE,112,4.2,-999.0,52,-99.99,,,0.00,Acu-Link.com,2013-04-17 15:11:00,
2013-04-17 11:26:00,52.3,33.7,30.19,ESE,112,4.7,-999.0,49,-99.99,,,0.00,Acu-Link.com,2013-04-17 15:26:00,
2013-04-17 11:42:00,52.5,33.4,30.18,NNE,22,4.2,-999.0,48,-99.99,,,0.00,Acu-Link.com,2013-04-17 15:42:00,
2013-04-17 11:57:00,54.3,34.5,30.18,SE,135,4.2,-999.0,47,-99.99,,,0.00,Acu-Link.com,2013-04-17 15:57:00,
2013-04-17 12:12:00,55.6,36.2,30.19,SSW,202,5.8,-999.0,48,-99.99,,,0.00,Acu-Link.com,2013-04-17 16:12:00,
2013-04-17 12:28:00,56.1,36.2,30.19,East,90,4.7,-999.0,47,-99.99,,,0.00,Acu-Link.com,2013-04-17 16:28:00,
2013-04-17 12:47:00,55.6,35.7,30.16,SSW,202,2.7,-999.0,47,-99.99,,,0.00,Acu-Link.com,2013-04-17 16:47:00,
2013-04-17 13:02:00,57.4,36.8,30.16,ESE,112,2.7,-999.0,46,-99.99,,,0.00,Acu-Link.com,2013-04-17 17:02:00,
2013-04-17 13:17:00,57.7,37.1,30.17,NE,45,2.7,-999.0,46,-99.99,,,0.00,Acu-Link.com,2013-04-17 17:17:00,
2013-04-17 13:32:00,58.1,36.9,30.19,NNE,22,1.7,-999.0,45,-99.99,,,0.00,Acu-Link.com,2013-04-17 17:32:00,
2013-04-17 13:47:00,58.5,37.2,30.17,North,0,2.7,-999.0,45,-99.99,,,0.00,Acu-Link.com,2013-04-17 17:47:00,
2013-04-17 14:03:00,57.9,35.5,30.14,NNW,337,2.2,-999.0,43,-99.99,,,0.00,Acu-Link.com,2013-04-17 18:03:00,
2013-04-17 14:18:00,57.6,36.4,30.11,ESE,112,6.8,-999.0,45,-99.99,,,0.00,Acu-Link.com,2013-04-17 18:18:00,
2013-04-17 14:33:00,57.6,36.4,30.12,SE,135,5.3,-999.0,45,-99.99,,,0.00,Acu-Link.com,2013-04-17 18:33:00,
2013-04-17 14:49:00,58.3,37.1,30.09,South,180,2.7,-999.0,45,-99.99,,,0.00,Acu-Link.com,2013-04-17 18:49:00,
2013-04-17 15:04:00,58.6,37.3,30.10,SE,135,7.3,-999.0,45,-99.99,,,0.00,Acu-Link.com,2013-04-17 19:04:00,
2013-04-17 15:19:00,59.0,37.7,30.07,West,270,4.2,-999.0,45,-99.99,,,0.00,Acu-Link.com,2013-04-17 19:19:00,
2013-04-17 15:34:00,58.8,38.6,30.08,ESE,112,6.8,-999.0,47,-99.99,,,0.00,Acu-Link.com,2013-04-17 19:34:00,
2013-04-17 15:49:00,58.1,38.0,30.08,East,90,1.7,-999.0,47,-99.99,,,0.00,Acu-Link.com,2013-04-17 19:49:00,
2013-04-17 16:05:00,58.5,36.7,30.09,SE,135,2.7,-999.0,44,-99.99,,,0.00,Acu-Link.com,2013-04-17 20:05:00,
2013-04-17 16:21:00,57.9,37.2,30.05,SSE,157,3.2,-999.0,46,-99.99,,,0.00,Acu-Link.com,2013-04-17 20:21:00,
2013-04-17 16:36:00,56.5,36.5,30.05,South,180,2.7,-999.0,47,-99.99,,,0.00,Acu-Link.com,2013-04-17 20:36:00,
2013-04-17 16:52:00,55.2,39.3,30.03,SE,135,1.1,-999.0,55,-99.99,,,0.00,Acu-Link.com,2013-04-17 20:52:00,
2013-04-17 17:08:00,53.6,39.2,30.06,South,180,4.2,-999.0,58,-99.99,,,0.00,Acu-Link.com,2013-04-17 21:08:00,
2013-04-17 17:23:00,52.3,40.9,30.03,ESE,112,2.7,-999.0,65,-99.99,,,0.00,Acu-Link.com,2013-04-17 21:23:00,
2013-04-17 17:39:00,50.9,41.8,30.06,SSW,202,2.7,-999.0,71,-99.99,,,0.01,Acu-Link.com,2013-04-17 21:39:00,
2013-04-17 17:54:00,49.5,43.6,30.04,South,180,3.7,-999.0,80,-99.99,,,0.01,Acu-Link.com,2013-04-17 21:54:00,
2013-04-17 18:10:00,48.2,43.9,30.02,SSE,157,1.1,-999.0,85,-99.99,,,0.07,Acu-Link.com,2013-04-17 22:10:00,
2013-04-17 18:25:00,47.7,44.3,30.02,ENE,67,1.7,-999.0,88,-99.99,,,0.08,Acu-Link.com,2013-04-17 22:25:00,
2013-04-17 18:40:00,47.5,44.4,29.99,ESE,112,3.7,-999.0,89,-99.99,,,0.08,Acu-Link.com,2013-04-17 22:40:00,
2013-04-17 18:55:00,47.1,44.0,29.99,ESE,112,2.7,-999.0,89,-99.99,,,0.08,Acu-Link.com,2013-04-17 22:55:00,
2013-04-17 19:10:00,46.8,44.3,30.00,ESE,112,2.2,-999.0,91,-99.99,,,0.09,Acu-Link.com,2013-04-17 23:10:00,
2013-04-17 19:26:00,46.0,44.4,30.06,NW,315,2.2,-999.0,94,-99.99,,,0.22,Acu-Link.com,2013-04-17 23:26:00,
2013-04-17 19:41:00,45.5,43.9,30.07,NNE,22,2.7,-999.0,94,-99.99,,,0.33,Acu-Link.com,2013-04-17 23:41:00,
2013-04-17 19:59:00,44.4,43.1,30.03,NE,45,4.2,-999.0,95,-99.99,,,0.35,Acu-Link.com,2013-04-17 23:59:00,
2013-04-17 20:17:00,44.4,43.1,30.05,NE,45,3.7,-999.0,95,-99.99,,,0.39,Acu-Link.com,2013-04-18 00:17:00,
2013-04-17 20:35:00,43.5,42.4,30.03,ESE,112,6.8,-999.0,96,-99.99,,,0.43,Acu-Link.com,2013-04-18 00:35:00,
2013-04-17 20:53:00,43.2,42.1,30.01,East,90,3.2,-999.0,96,-99.99,,,0.49,Acu-Link.com,2013-04-18 00:53:00,
2013-04-17 21:10:00,42.8,42.0,30.02,NE,45,2.7,-999.0,97,-99.99,,,0.55,Acu-Link.com,2013-04-18 01:10:00,
2013-04-17 21:34:00,42.8,42.3,29.98,East,90,4.7,-999.0,98,-99.99,,,0.59,Acu-Link.com,2013-04-18 01:34:00,
2013-04-17 21:50:00,43.0,42.5,29.98,SE,135,4.7,-999.0,98,-99.99,,,0.62,Acu-Link.com,2013-04-18 01:50:00,
2013-04-17 22:08:00,43.2,42.1,29.95,ESE,112,8.9,-999.0,96,-99.99,,,0.76,Acu-Link.com,2013-04-18 02:08:00,
2013-04-17 22:24:00,43.2,41.9,29.93,South,180,6.8,-999.0,95,-99.99,,,0.76,Acu-Link.com,2013-04-18 02:24:00,
2013-04-17 22:45:00,43.5,41.6,29.89,SSE,157,8.9,-999.0,93,-99.99,,,0.77,Acu-Link.com,2013-04-18 02:45:00,
2013-04-17 23:02:00,43.0,41.4,29.90,South,180,5.3,-999.0,94,-99.99,,,0.78,Acu-Link.com,2013-04-18 03:02:00,
2013-04-17 23:26:00,43.0,41.1,29.88,ESE,112,7.8,-999.0,93,-99.99,,,0.78,Acu-Link.com,2013-04-18 03:26:00,
2013-04-17 23:41:00,43.5,41.6,29.86,ESE,112,6.3,-999.0,93,-99.99,,,0.86,Acu-Link.com,2013-04-18 03:41:00,
2013-04-17 23:56:00,43.9,42.3,29.87,SE,135,8.9,-999.0,94,-99.99,,,0.86,Acu-Link.com,2013-04-18 03:56:00,